{"data":{"norad_id":39761,"epoch":"2026-09-20T04:06:01.367424Z","epoch_age_seconds":65677,"freshness":"FRESH","line1":"1 39761U 14028A   26263.17084916  .00000064  00000+0  39497-3 0  9990","line2":"2 39761  82.4450  49.2148 0019435 231.0380 128.8968 12.42881401559314","mean_motion":12.42881401,"eccentricity":0.0019435,"inclination_deg":82.445,"raan_deg":49.2148,"arg_perigee_deg":231.038,"mean_anomaly_deg":128.8968,"bstar":0.00039497,"rev_number":55931,"period_min":115.85980760847,"perigee_km":1479.1118726567,"apogee_km":1509.7124712881,"semimajor_km":7872.5491719724,"source":"CELESTRAK","updated_at":"2026-09-20T09:00:13.970218Z"}}